This demonstration page uses our WeatherBlox Daily Observations layout. Learn more.

Left ArrowRight Arrow

41.55636, -103.73856

Hourly Observations for November 24, 2021

Temp ( °F °C ) Dew Point ( °F °C ) Humidity (%) Winds ( mph kmh ) Pressure ( in mb ) Visibility ( mi km ) Precip ( " mm )
1:58 am 01:58 Mostly Cloudy 47 8.2 6 -14.4 19 19 WNW 25 41 29.70 1006 10 16 0.00 0.00
2:58 am 02:58 Mostly Cloudy 43 5.9 9 -12.9 25 25 WNW 20 31 29.73 1007 10 16 0.00 0.00
3:58 am 03:58 Mostly Clear 40 4.7 11 -11.9 29 29 NW 15 24 29.78 1009 10 16 0.00 0.00
4:58 am 04:58 Partly Cloudy 38 3.4 12 -11.3 34 34 NNW 18 30 29.85 1011 10 16 0.00 0.00
5:58 am 05:58 Mostly Cloudy 39 3.9 13 -10.8 34 34 NW 24 39 29.98 1015 10 16 0.00 0.00
6:58 am 06:58 Mostly Cloudy 35 1.7 13 -10.3 41 41 NW 15 24 29.99 1016 10 16 0.00 0.00
7:58 am 07:58 Mostly Cloudy 35 1.6 15 -9.4 44 44 NW 20 31 30.12 1020 10 16 0.00 0.00
8:58 am 08:58 Mostly Sunny 34 1.2 19 -7.5 53 53 NW 17 28 30.06 1018 10 16 0.00 0.00
9:58 am 09:58 Mostly Cloudy 37 2.8 25 -3.9 62 62 NNW 21 33 30.18 1022 10 16 0.00 0.00
10:58 am 10:58 Mostly Cloudy with Light Showers 36 2.2 28 -2.5 71 71 N 15 24 30.14 1021 10 16 0.00 0.00
11:58 am 11:58 Mostly Cloudy with Light Showers 37 2.6 27 -3 67 67 N 18 30 30.15 1021 10 16 0.00 0.00
12:58 pm 12:58 Windy with Rain Showers Likely 34 1.1 25 -4.1 69 69 N 22 35 30.19 1022 10 16 0.00 0.00
1:58 pm 13:58 Cloudy 32 0.2 24 -4.7 70 70 N 18 30 30.25 1025 10 16 0.00 0.00
2:58 pm 14:58 Cloudy 33 0.4 22 -5.8 64 64 NNW 20 31 30.30 1026 10 16 0.00 0.00
3:58 pm 15:58 Mostly Cloudy 33 0.7 19 -7 57 57 NNW 18 30 30.34 1027 10 16 0.00 0.00
4:58 pm 16:58 Mostly Cloudy 31 -0.5 18 -7.7 59 59 NNW 13 20 30.38 1029 10 16 0.00 0.00
5:58 pm 17:58 Clear 26 -3.1 18 -7.9 70 70 NW 9 15 30.43 1031 10 16 0.00 0.00
6:58 pm 18:58 Clear 24 -4.5 17 -8.1 76 76 NNW 10 17 30.47 1032 10 16 0.00 0.00
7:58 pm 19:58 Clear 25 -4 17 -8.1 73 73 WNW 9 15 30.48 1032 10 16 0.00 0.00
8:58 pm 20:58 Clear 22 -5.7 17 -8.5 81 81 SW 6 9 30.52 1034 10 16 0.00 0.00
9:58 pm 21:58 Clear 19 -7 16 -9.1 85 85 SW 7 11 30.53 1034 10 16 0.00 0.00
10:58 pm 22:58 Clear 21 -6 16 -9 80 80 SW 6 9 30.53 1034 10 16 0.00 0.00
11:58 pm 23:58 Clear 21 -6.2 17 -8.4 85 85 WSW 5 7 30.53 1034 10 16 0.00 0.00

Powered by AerisWeather